Location: Chassagnes
(44.4047°N, 4.1657°E)
Time: 11:58:28
(UTC+00:00)

Cosmos 1992 Rocket - Pass Details

Date: 27 October 2020
Orbit: 759 x 765 km, 74.0° (Epoch: 23 November)

Event Time Altitude Azimuth Distance (km) Brightness Sun altitude
Rises 18:48:11 0° 206° (SSW) 3,206 7.5 -23.6°
Reaches altitude 10° 18:50:34 10° 209° (SSW) 2,284 6.7 -24.0°
Maximum altitude 18:55:43 68° 293° (WNW) 820 4.2 -24.9°
Enters shadow 18:59:48 17° 14° (NNE) 1,880 5.9 -25.6°
